Location: Claflin County Park
(44.8478°N, 87.5507°W)
Time: 03:09:41
(UTC+00:00)

USA 234 - Pass Details

Date: 21 March 2026
Orbit: 1102 x 1106 km, 123.0° (Epoch: 4 January)

Event Time Altitude Azimuth Distance (km) Brightness Sun altitude
Exits shadow 01:05:12 - 61° (ENE) 3,454 5.4 -11.8°
Reaches altitude 10° 01:06:39 10° 55° (NE) 2,967 5.1 -12.0°
Maximum altitude 01:12:11 31° 357° (N) 1,845 4.6 -13.0°
Drops below altitude 10° 01:17:44 10° 299° (WNW) 2,969 6.8 -13.9°
Sets 01:20:30 0° 290° (WNW) 3,927 8.1 -14.4°
